KD9YTS-13 Weather Reports


Display with metric or nautical units.
time (UTC)temp
F
wind
direction
speed
MPH
gust
MPH
rain 1hr
in
rain 24hr
in
rain mn
in
humidity
%
barometer
mb
20260503195623 70 0 14.0 0.0 0.00 0.00 0.00 3
20260503193622 0 0 6.0 0.0 0.00 0.00 0.00 100
20260503191622 0 0 2.0 0.0 0.00 0.00 0.00 100
20260503185622 0 285 3.0 0.0 0.00 0.00 0.00 100
20260503183622 69 0 3.0 0.0 0.00 0.00 0.00 3
20260503181622 0 0 3.0 0.0 0.00 0.00 0.00 100
20260503175622 0 0 8.0 0.0 0.00 0.00 0.00 100
20260503173622 0 0 2.0 0.0 0.00 0.00 0.00 100
20260503081623 0 0 1.0 0.0 0.00 0.00 0.00 100
20260503071622 49 0 0.0 0.0 0.00 0.00 0.00 5
20260503053623 49 0 0.0 0.0 0.00 0.00 0.00 5
20260503051622 0 0 0.0 0.0 0.00 0.00 0.00 100
20260503045623 0 0 0.0 0.0 0.00 0.00 0.00 100
20260503043622 0 0 0.0 0.0 0.00 0.00 0.00 100
20260503041622 49 0 0.0 0.0 0.00 0.00 0.00 4
20260503035622 49 0 0.0 0.0 0.00 0.00 0.00 4
20260503033622 0 0 0.0 0.0 0.00 0.00 0.00 100
20260503025623 0 0 0.0 0.0 0.00 0.00 0.00 100
20260503023623 48 0 0.0 0.0 0.00 0.00 0.00 4
20260503021622 48 0 0.0 0.0 0.00 0.00 0.00 4
20260503015622 0 0 0.0 0.0 0.00 0.00 0.00 100
20260503013622 0 0 0.0 0.0 0.00 0.00 0.00 100
20260503011622 52 0 0.0 0.0 0.00 0.00 0.00 4
20260503005623 54 0 0.0 0.0 0.00 0.00 0.00 3
20260503003622 55 0 0.0 0.0 0.00 0.00 0.00 3
20260503001622 0 0 3.0 0.0 0.00 0.00 0.00 100
20260502235622 0 318 7.0 0.0 0.00 0.00 0.00 100
20260502233622 0 302 7.0 0.0 0.00 0.00 0.00 100
20260502231622 60 0 5.0 0.0 0.00 0.00 0.00 2
20260502225622 0 0 3.0 0.0 0.00 0.00 0.00 100
20260502223623 0 0 8.0 0.0 0.00 0.00 0.00 100
20260502221622 0 315 5.0 0.0 0.00 0.00 0.00 100
20260502215622 60 0 5.0 0.0 0.00 0.00 0.00 3
20260502213622 60 0 3.0 0.0 0.00 0.00 0.00 3
20260502211622 0 0 10.0 0.0 0.00 0.00 0.00 100
20260502205623 0 0 5.0 0.0 0.00 0.00 0.00 100
20260502203622 0 262 1.0 0.0 0.00 0.00 0.00 100
20260502201622 60 0 5.0 0.0 0.00 0.00 0.00 2